Cas;Teplota [C];Tlak [hPa];Svetlo [lux];Rychlost vetru [km/h];Smer vetru [stupne]
2019-09-09 00:00:01;13.3;1011.52;8;0;0
2019-09-09 00:00:31;13.14;1011.48;7;0;0
2019-09-09 00:01:02;13.34;1011.49;8;0;0
2019-09-09 00:01:31;13.25;1011.49;8;0;0
2019-09-09 00:02:01;13.17;1011.47;8;0;0
2019-09-09 00:02:31;13.1;1011.37;8;0;0
2019-09-09 00:03:01;13;1011.44;7;0;0
2019-09-09 00:03:31;13.07;1011.44;7;0;0
2019-09-09 00:04:01;13.13;1011.36;8;0;0
2019-09-09 00:04:31;13.03;1011.36;8;0;0
2019-09-09 00:05:01;13.17;1011.35;8;0;0
2019-09-09 00:05:31;13.29;1011.36;8;0;0
2019-09-09 00:06:01;13.2;1011.37;8;0;0
2019-09-09 00:06:31;13.08;1011.38;8;0;0
2019-09-09 00:07:02;12.99;1011.4;8;0;0
2019-09-09 00:07:31;13.12;1011.34;8;0;0
2019-09-09 00:08:01;13.15;1011.28;8;0;0
2019-09-09 00:08:32;13.18;1011.32;8;0;0
2019-09-09 00:09:01;13.13;1011.32;8;0;0
2019-09-09 00:09:31;13.15;1011.25;8;0;0
2019-09-09 00:10:01;13.16;1011.22;8;0;0
2019-09-09 00:10:31;13.18;1011.27;8;0;0
2019-09-09 00:11:01;13.25;1011.24;8;0;0
2019-09-09 00:11:31;13.21;1011.23;8;0;0
2019-09-09 00:12:01;13.25;1011.27;8;0;0
2019-09-09 00:12:31;13.07;1011.24;8;0;0
2019-09-09 00:13:01;13.06;1011.19;8;0;0
2019-09-09 00:13:31;13.16;1011.24;8;0;0
2019-09-09 00:14:01;13.17;1011.24;8;0;0
2019-09-09 00:14:31;13.25;1011.15;8;0;0
2019-09-09 00:15:01;13.19;1011.18;8;0;0
2019-09-09 00:15:31;12.93;1011.13;8;0;0
2019-09-09 00:16:01;13.05;1011.11;8;0;0
2019-09-09 00:16:31;13.04;1011.06;7;0;0
2019-09-09 00:17:01;13.16;1011.05;8;0;0
2019-09-09 00:17:31;13.06;1011.05;8;0;0
2019-09-09 00:18:01;13.16;1011.06;8;0;0
2019-09-09 00:18:32;13.02;1011.08;8;0;0
2019-09-09 00:19:02;13.05;1011.03;8;0;0
2019-09-09 00:19:31;13.02;1011.07;8;0;0
2019-09-09 00:20:01;13.03;1011.09;8;0;0
2019-09-09 00:20:31;13.07;1011.1;8;0;0
2019-09-09 00:21:01;12.96;1011.08;8;0;0
2019-09-09 00:21:31;12.95;1011.08;8;0;0
2019-09-09 00:22:01;13.06;1011;8;0;0
2019-09-09 00:22:31;13.02;1010.99;8;0;0
2019-09-09 00:23:02;12.92;1011.03;8;0;0
2019-09-09 00:23:31;12.94;1011.03;8;0;0
2019-09-09 00:24:01;13.02;1011.03;8;0;0
2019-09-09 00:24:31;12.95;1010.97;8;0;0
2019-09-09 00:25:01;12.98;1010.93;8;0;0
2019-09-09 00:25:31;13.05;1010.9;8;0;0
2019-09-09 00:26:01;12.97;1010.89;7;0;0
2019-09-09 00:26:31;12.93;1010.87;8;0;0
2019-09-09 00:27:01;13;1010.85;9;0;0
2019-09-09 00:27:31;13.06;1010.86;8;0;0
2019-09-09 00:28:01;12.92;1010.89;8;0;0
2019-09-09 00:28:31;12.81;1010.88;8;0;0
2019-09-09 00:29:02;13;1010.9;8;0;0
2019-09-09 00:29:32;13.03;1010.87;8;0;0
2019-09-09 00:30:02;13.1;1010.88;8;0;0
2019-09-09 00:30:31;13.15;1010.9;7;0;0
2019-09-09 00:31:01;13;1010.87;8;0;0
2019-09-09 00:31:31;13.01;1010.87;8;0;0
2019-09-09 00:32:01;13.05;1010.87;8;0;0
2019-09-09 00:32:31;12.98;1010.88;8;0;0
2019-09-09 00:33:01;12.91;1010.84;7;0;0
2019-09-09 00:33:31;13.01;1010.82;8;0;0
2019-09-09 00:34:01;13.02;1010.83;8;0;0
2019-09-09 00:34:31;13.04;1010.83;8;0;0
2019-09-09 00:35:02;13.12;1010.81;7;0;0
2019-09-09 00:35:31;13;1010.81;8;0;0
2019-09-09 00:36:01;13.01;1010.8;8;0;0
2019-09-09 00:36:31;13.1;1010.8;8;0;0
2019-09-09 00:37:01;13.19;1010.8;8;0;0
2019-09-09 00:37:31;13.15;1010.8;8;0;0
2019-09-09 00:38:01;13.06;1010.8;8;0;0
2019-09-09 00:38:31;13.1;1010.8;8;0;0
2019-09-09 00:39:01;13.01;1010.8;8;0;0
2019-09-09 00:39:31;13.03;1010.8;8;0;0
2019-09-09 00:40:01;13.03;1010.8;8;0;0
2019-09-09 00:40:31;13.1;1010.8;8;0;0
2019-09-09 00:41:01;12.99;1010.8;8;0;0
2019-09-09 00:41:32;12.9;1010.8;8;0;0
2019-09-09 00:42:02;12.89;1010.8;8;0;0
2019-09-09 00:42:31;12.9;1010.8;8;0;0
2019-09-09 00:43:01;12.89;1010.8;8;0;0
2019-09-09 00:43:31;12.88;1010.78;8;0;0
2019-09-09 00:44:01;12.83;1010.79;8;0;0
2019-09-09 00:44:31;12.82;1010.79;8;0;0
2019-09-09 00:45:01;12.79;1010.79;8;0;0
2019-09-09 00:45:31;12.81;1010.79;9;0;0
2019-09-09 00:46:01;12.87;1010.79;8;0;0
2019-09-09 00:46:31;12.87;1010.79;8;0;0
2019-09-09 00:47:01;12.75;1010.79;8;0;0
2019-09-09 00:47:31;12.85;1010.79;8;0;0
2019-09-09 00:48:01;12.86;1010.79;9;0;0
2019-09-09 00:48:31;12.93;1010.79;8;0;0
2019-09-09 00:49:01;12.71;1010.79;8;0;0
2019-09-09 00:49:31;12.75;1010.79;8;0;0
2019-09-09 00:50:01;12.95;1010.79;8;0;0
2019-09-09 00:50:31;12.92;1010.79;8;0;0
2019-09-09 00:51:02;13.03;1010.79;8;0;0
2019-09-09 00:51:31;12.91;1010.79;8;0;0
2019-09-09 00:52:01;12.87;1010.79;8;0;0
2019-09-09 00:52:32;12.7;1010.77;8;0;0
2019-09-09 00:53:01;12.77;1010.77;8;0;0
2019-09-09 00:53:31;12.7;1010.78;8;0;0
2019-09-09 00:54:01;12.69;1010.78;8;0;0
2019-09-09 00:54:31;12.58;1010.78;8;0;0
2019-09-09 00:55:01;12.65;1010.78;8;0;0
2019-09-09 00:55:31;12.59;1010.79;8;0;0
2019-09-09 00:56:01;12.79;1010.79;8;0;0
2019-09-09 00:56:31;12.86;1010.79;8;0;0
2019-09-09 00:57:01;12.8;1010.75;8;0;0
2019-09-09 00:57:31;12.82;1010.77;8;0;0
2019-09-09 00:58:01;12.95;1010.76;8;0;0
2019-09-09 00:58:31;12.86;1010.76;8;0;0
2019-09-09 00:59:01;12.79;1010.76;8;0;0
2019-09-09 00:59:31;12.83;1010.75;8;0;0
2019-09-09 01:00:01;12.91;1010.73;8;0;0
2019-09-09 01:00:31;12.86;1010.72;8;0;0
2019-09-09 01:01:01;12.74;1010.69;8;0;0
2019-09-09 01:01:31;12.76;1010.69;8;0;0
2019-09-09 01:02:01;12.77;1010.67;8;0;0
2019-09-09 01:02:31;12.8;1010.67;8;0;0
2019-09-09 01:03:01;12.68;1010.67;8;0;0
2019-09-09 01:03:32;12.76;1010.65;8;0;0
2019-09-09 01:04:01;12.62;1010.61;8;0;0
2019-09-09 01:04:31;12.75;1010.57;8;0;0
2019-09-09 01:05:01;12.79;1010.59;8;0;0
2019-09-09 01:05:31;12.89;1010.58;8;0;0
2019-09-09 01:06:01;12.86;1010.59;8;0;0
2019-09-09 01:06:31;12.9;1010.62;8;0;0
2019-09-09 01:07:02;12.94;1010.56;8;0;0
2019-09-09 01:07:31;12.85;1010.46;8;0;0
2019-09-09 01:08:01;12.9;1010.47;8;0;0
2019-09-09 01:08:31;12.92;1010.5;8;0;0
2019-09-09 01:09:01;12.98;1010.54;8;0;0
2019-09-09 01:09:31;12.85;1010.52;8;0;0
2019-09-09 01:10:01;12.82;1010.51;8;0;0
2019-09-09 01:10:31;12.73;1010.55;8;0;0
2019-09-09 01:11:01;12.8;1010.49;9;0;0
2019-09-09 01:11:31;12.78;1010.4;8;0;0
2019-09-09 01:12:01;12.86;1010.46;8;0;0
2019-09-09 01:12:31;12.87;1010.38;8;0;0
2019-09-09 01:13:01;12.92;1010.36;8;0;0
2019-09-09 01:13:31;12.82;1010.33;8;0;0
2019-09-09 01:14:01;12.64;1010.34;7;0;0
2019-09-09 01:14:32;12.73;1010.36;7;0;0
2019-09-09 01:15:01;12.83;1010.36;8;0;0
2019-09-09 01:15:31;12.71;1010.37;8;0;0
2019-09-09 01:16:01;12.71;1010.37;8;0;0
2019-09-09 01:16:31;12.71;1010.34;7;0;0
2019-09-09 01:17:01;12.75;1010.33;7;0;0
2019-09-09 01:17:31;12.84;1010.25;8;0;0
2019-09-09 01:18:02;13;1010.19;8;0;0
2019-09-09 01:18:31;12.82;1010.16;8;0;0
2019-09-09 01:19:01;12.8;1010.12;8;0;0
2019-09-09 01:19:31;12.93;1010.11;8;0;0
2019-09-09 01:20:01;12.89;1010.11;8;0;0
2019-09-09 01:20:31;12.88;1010.02;8;0;0
2019-09-09 01:21:01;12.9;1010.03;8;0;0
2019-09-09 01:21:31;12.95;1009.98;8;0;0
2019-09-09 01:22:01;12.96;1009.99;8;0;0
2019-09-09 01:22:31;12.92;1009.99;8;0;0
2019-09-09 01:23:02;12.77;1009.99;7;0;0
2019-09-09 01:23:31;12.8;1009.95;7;0;0
2019-09-09 01:24:01;12.68;1009.96;8;0;0
2019-09-09 01:24:31;12.79;1009.92;8;0;0
2019-09-09 01:25:01;12.8;1009.92;8;0;0
2019-09-09 01:25:32;12.89;1009.89;8;0;0
2019-09-09 01:26:01;12.7;1009.9;7;0;0
2019-09-09 01:26:31;12.77;1009.87;8;0;0
2019-09-09 01:27:01;12.9;1009.85;8;0;0
2019-09-09 01:27:31;12.75;1009.84;8;0;0
2019-09-09 01:28:02;12.84;1009.84;8;0;0
2019-09-09 01:28:31;12.68;1009.83;8;0;0
2019-09-09 01:29:01;12.77;1009.83;8;0;0
2019-09-09 01:29:31;12.93;1009.82;8;0;0
2019-09-09 01:30:01;12.96;1009.82;8;0;0
2019-09-09 01:30:31;12.77;1009.82;8;0;0
2019-09-09 01:31:01;12.89;1009.82;8;0;0
2019-09-09 01:31:31;12.8;1009.83;8;0;0
2019-09-09 01:32:01;12.81;1009.84;8;0;0
2019-09-09 01:32:31;12.88;1009.83;8;0;0
2019-09-09 01:33:02;12.91;1009.83;7;0;0
2019-09-09 01:33:31;12.93;1009.82;8;0;0
2019-09-09 01:34:01;12.94;1009.83;8;0;0
2019-09-09 01:34:31;12.85;1009.83;8;0;0
2019-09-09 01:35:01;12.76;1009.82;8;0;0
2019-09-09 01:35:31;12.7;1009.82;8;0;0
2019-09-09 01:36:01;12.65;1009.82;8;0;0
2019-09-09 01:36:32;12.73;1009.84;8;0;0
2019-09-09 01:37:01;12.76;1009.83;8;0;0
2019-09-09 01:37:31;12.66;1009.84;8;0;0
2019-09-09 01:38:02;12.85;1009.83;7;0;0
2019-09-09 01:38:31;12.65;1009.83;8;0;0
2019-09-09 01:39:01;12.75;1009.82;8;0;0
2019-09-09 01:39:31;12.76;1009.84;8;0;0
2019-09-09 01:40:01;12.72;1009.83;7;0;0
2019-09-09 01:40:31;12.7;1009.82;8;0;0
2019-09-09 01:41:01;12.69;1009.82;8;0;0
2019-09-09 01:41:31;12.73;1009.82;8;0;0
2019-09-09 01:42:01;12.66;1009.82;8;0;0
2019-09-09 01:42:31;12.74;1009.82;8;0;0
2019-09-09 01:43:01;12.63;1009.83;8;0;0
2019-09-09 01:43:31;12.7;1009.83;8;0;0
2019-09-09 01:44:01;12.66;1009.82;8;0;0
2019-09-09 01:44:31;12.68;1009.82;8;0;0
2019-09-09 01:45:01;12.62;1009.82;8;0;0
2019-09-09 01:45:31;12.75;1009.82;8;0;0
2019-09-09 01:46:01;12.59;1009.82;8;0;0
2019-09-09 01:46:31;12.68;1009.82;7;0;0
2019-09-09 01:47:01;12.61;1009.81;8;0;0
2019-09-09 01:47:32;12.75;1009.81;8;0;0
2019-09-09 01:48:01;12.73;1009.81;8;0;0
2019-09-09 01:48:31;12.71;1009.8;7;0;0
2019-09-09 01:49:01;12.79;1009.81;8;0;0
2019-09-09 01:49:31;12.64;1009.81;8;0;0
2019-09-09 01:50:01;12.6;1009.81;8;0;0
2019-09-09 01:50:31;12.48;1009.81;8;0;0
2019-09-09 01:51:01;12.67;1009.81;8;0;0
2019-09-09 01:51:31;12.58;1009.83;8;0;0
2019-09-09 01:52:01;12.4;1009.82;8;0;0
2019-09-09 01:52:31;12.68;1009.82;8;0;0
2019-09-09 01:53:02;12.56;1009.82;8;0;0
2019-09-09 01:53:31;12.56;1009.81;8;0;0
2019-09-09 01:54:01;12.74;1009.81;8;0;0
2019-09-09 01:54:31;12.59;1009.82;8;0;0
2019-09-09 01:55:01;12.63;1009.82;8;0;0
2019-09-09 01:55:31;12.78;1009.82;8;0;0
2019-09-09 01:56:01;12.67;1009.82;7;0;0
2019-09-09 01:56:31;12.67;1009.82;8;0;0
2019-09-09 01:57:01;12.7;1009.8;8;0;0
2019-09-09 01:57:31;12.62;1009.76;8;0;0
2019-09-09 01:58:01;12.58;1009.71;7;0;0
2019-09-09 01:58:32;12.43;1009.69;7;0;0
2019-09-09 01:59:01;12.57;1009.65;8;0;0
2019-09-09 01:59:31;12.62;1009.69;8;0;0
2019-09-09 02:00:01;12.49;1009.63;7;0;0
2019-09-09 02:00:31;12.43;1009.67;8;0;0
2019-09-09 02:01:01;12.41;1009.59;8;0;0
2019-09-09 02:01:31;12.34;1009.58;8;0;0
2019-09-09 02:02:02;12.5;1009.56;8;0;0
2019-09-09 02:02:31;12.41;1009.57;8;0;0
2019-09-09 02:03:01;12.46;1009.5;8;0;0
2019-09-09 02:03:31;12.66;1009.49;9;0;0
2019-09-09 02:04:02;12.63;1009.47;8;0;0
2019-09-09 02:04:31;12.42;1009.45;8;0;0
2019-09-09 02:05:01;12.37;1009.49;8;0;0
2019-09-09 02:05:31;12.34;1009.52;8;0;0
2019-09-09 02:06:01;12.33;1009.59;8;0;0
2019-09-09 02:06:31;12.49;1009.6;8;0;0
2019-09-09 02:07:01;12.25;1009.62;7;0;0
2019-09-09 02:07:31;12.48;1009.66;8;0;0
2019-09-09 02:08:01;12.21;1009.7;8;0;0
2019-09-09 02:08:31;12.32;1009.7;7;0;0
2019-09-09 02:09:01;12.43;1009.74;8;0;0
2019-09-09 02:09:32;12.66;1009.71;8;0;0
2019-09-09 02:10:01;12.44;1009.72;8;0;0
2019-09-09 02:10:31;12.5;1009.71;8;0;0
2019-09-09 02:11:01;12.52;1009.7;8;0;0
2019-09-09 02:11:31;12.43;1009.7;8;0;0
2019-09-09 02:12:01;12.39;1009.65;8;0;0
2019-09-09 02:12:31;12.51;1009.63;8;0;0
2019-09-09 02:13:01;12.65;1009.58;8;0;0
2019-09-09 02:13:31;12.55;1009.59;8;0;0
2019-09-09 02:14:02;12.44;1009.53;8;0;0
2019-09-09 02:14:31;12.53;1009.5;8;0;0
2019-09-09 02:15:01;12.51;1009.52;8;0;0
2019-09-09 02:15:31;12.53;1009.5;8;0;0
2019-09-09 02:16:01;12.43;1009.46;8;0;0
2019-09-09 02:16:31;12.59;1009.37;8;0;0
2019-09-09 02:17:01;12.48;1009.32;8;0;0
2019-09-09 02:17:31;12.65;1009.4;8;0;0
2019-09-09 02:18:01;12.7;1009.33;7;0;0
2019-09-09 02:18:31;12.66;1009.24;8;0;0
2019-09-09 02:19:01;12.61;1009.17;8;0;0
2019-09-09 02:19:31;12.5;1009.21;8;0;0
2019-09-09 02:20:01;12.61;1009.23;7;0;0
2019-09-09 02:20:32;12.54;1009.21;8;0;0
2019-09-09 02:21:01;12.58;1009.23;8;0;0
2019-09-09 02:21:31;12.58;1009.17;8;0;0
2019-09-09 02:22:01;12.52;1009.18;8;0;0
2019-09-09 02:22:31;12.71;1009.17;8;0;0
2019-09-09 02:23:01;12.56;1009.2;8;0;0
2019-09-09 02:23:31;12.62;1009.18;8;0;0
2019-09-09 02:24:01;12.7;1009.14;8;0;0
2019-09-09 02:24:31;12.46;1009.14;9;0;0
2019-09-09 02:25:01;12.46;1009.14;8;0;0
2019-09-09 02:25:31;12.56;1009.12;8;0;0
2019-09-09 02:26:01;12.32;1009.15;8;0;0
2019-09-09 02:26:31;12.48;1009.14;8;0;0
2019-09-09 02:27:02;12.44;1009.09;8;0;0
2019-09-09 02:27:31;12.6;1009.08;8;0;0
2019-09-09 02:28:01;12.6;1009.1;7;0;0
2019-09-09 02:28:31;12.58;1009.11;7;0;0
2019-09-09 02:29:01;12.49;1009.06;8;0;0
2019-09-09 02:29:31;12.56;1009.14;8;0;0
2019-09-09 02:30:01;12.47;1009.12;8;0;0
2019-09-09 02:30:31;12.59;1009.04;8;0;0
2019-09-09 02:31:01;12.6;1009.1;8;0;0
2019-09-09 02:31:32;12.66;1009.02;8;0;0
2019-09-09 02:32:01;12.49;1009.07;8;0;0
2019-09-09 02:32:31;12.58;1009.08;8;0;0
2019-09-09 02:33:01;12.55;1009.13;8;0;0
2019-09-09 02:33:31;12.44;1009.12;8;0;0
2019-09-09 02:34:01;12.38;1009.15;8;0;0
2019-09-09 02:34:31;12.47;1009.18;8;0;0
2019-09-09 02:35:01;12.44;1009.17;8;0;0
2019-09-09 02:35:31;12.5;1009.12;8;0;0
2019-09-09 02:36:01;12.63;1009.15;8;0;0
2019-09-09 02:36:31;12.71;1009.18;8;0;0
2019-09-09 02:37:01;12.66;1009.27;8;0;0
2019-09-09 02:37:31;12.61;1009.27;8;0;0
2019-09-09 02:38:01;12.67;1009.23;8;0;0
2019-09-09 02:38:31;12.79;1009.27;8;0;0
2019-09-09 02:39:02;12.57;1009.23;8;0;0
2019-09-09 02:39:32;12.59;1009.22;8;0;0
2019-09-09 02:40:01;12.53;1009.25;8;0;0
2019-09-09 02:40:31;12.52;1009.19;8;0;0
2019-09-09 02:41:01;12.59;1009.25;8;0;0
2019-09-09 02:41:31;12.44;1009.26;8;0;0
2019-09-09 02:42:01;12.48;1009.22;8;0;0
2019-09-09 02:42:31;12.63;1009.27;8;0;0
2019-09-09 02:43:01;12.44;1009.27;8;0;0
2019-09-09 02:43:31;12.42;1009.24;8;0;0
2019-09-09 02:44:01;12.51;1009.25;8;0;0
2019-09-09 02:44:31;12.48;1009.18;8;0;0
2019-09-09 02:45:01;12.47;1009.15;8;0;0
2019-09-09 02:45:31;12.46;1009.16;9;0;0
2019-09-09 02:46:01;12.32;1009.13;8;0;0
2019-09-09 02:46:31;12.23;1009.12;8;0;0
2019-09-09 02:47:01;12.21;1009.06;8;0;0
2019-09-09 02:47:31;12.38;1009.07;8;0;0
2019-09-09 02:48:01;12.49;1009.04;9;0;0
2019-09-09 02:48:31;12.51;1009.02;8;0;0
2019-09-09 02:49:01;12.41;1009.06;8;0;0
2019-09-09 02:49:32;12.48;1009.05;8;0;0
2019-09-09 02:50:01;12.57;1009.03;8;0;0
2019-09-09 02:50:31;12.45;1009;8;0;0
2019-09-09 02:51:01;12.43;1009.01;8;0;0
2019-09-09 02:51:31;12.42;1008.99;8;0;0
2019-09-09 02:52:01;12.29;1009.07;8;0;0
2019-09-09 02:52:31;12.56;1009.13;8;0;0
2019-09-09 02:53:01;12.56;1009.11;8;0;0
2019-09-09 02:53:31;12.58;1009.08;8;0;0
2019-09-09 02:54:02;12.59;1009.09;8;0;0
2019-09-09 02:54:31;12.45;1009.01;8;0;0
2019-09-09 02:55:01;12.44;1009.04;8;0;0
2019-09-09 02:55:31;12.42;1009.03;8;0;0
2019-09-09 02:56:01;12.46;1009.02;8;0;0
2019-09-09 02:56:31;12.52;1009.04;8;0;0
2019-09-09 02:57:01;12.47;1009.03;8;0;0
2019-09-09 02:57:31;12.47;1009;8;0;0
2019-09-09 02:58:02;12.49;1009.01;8;0;0
2019-09-09 02:58:31;12.49;1009;7;0;0
2019-09-09 02:59:01;12.46;1008.97;8;0;0
2019-09-09 02:59:31;12.48;1009.01;8;0;0
2019-09-09 03:00:01;12.41;1009;8;0;0
2019-09-09 03:00:32;12.45;1009;8;0;0
2019-09-09 03:01:01;12.4;1009.02;7;0;0
2019-09-09 03:01:31;12.44;1009.02;8;0;0
2019-09-09 03:02:01;12.52;1009.02;7;0;0
2019-09-09 03:02:31;12.58;1009.08;8;0;0
2019-09-09 03:03:01;12.46;1009.07;8;0;0
2019-09-09 03:03:31;12.45;1009.07;8;0;0
2019-09-09 03:04:01;12.35;1009.03;8;0;0
2019-09-09 03:04:31;12.61;1009.04;8;0;0
2019-09-09 03:05:01;12.63;1009.03;8;0;0
2019-09-09 03:05:32;12.63;1008.99;8;0;0
2019-09-09 03:06:01;12.5;1009.05;8;0;0
2019-09-09 03:06:31;12.56;1009.03;8;0;0
2019-09-09 03:07:01;12.38;1009;8;0;0
2019-09-09 03:07:31;12.43;1009;8;0;0
2019-09-09 03:08:01;12.59;1008.97;8;0;0
2019-09-09 03:08:31;12.46;1008.99;8;0;0
2019-09-09 03:09:02;12.48;1008.95;8;0;0
2019-09-09 03:09:31;12.58;1008.92;8;0;0
2019-09-09 03:10:01;12.6;1008.9;8;0;0
2019-09-09 03:10:31;12.55;1008.94;8;0;0
2019-09-09 03:11:01;12.58;1008.97;8;0;0
2019-09-09 03:11:31;12.41;1008.96;8;0;0
2019-09-09 03:12:01;12.39;1008.92;8;0;0
2019-09-09 03:12:32;12.45;1008.91;8;0;0
2019-09-09 03:13:01;12.53;1008.89;8;0;0
2019-09-09 03:13:31;12.56;1008.87;8;0;0
2019-09-09 03:14:01;12.57;1008.86;8;0;0
2019-09-09 03:14:31;12.56;1008.85;8;0;0
2019-09-09 03:15:01;12.59;1008.85;8;0;0
2019-09-09 03:15:31;12.61;1008.86;8;0;0
2019-09-09 03:16:01;12.5;1008.85;8;0;0
2019-09-09 03:16:31;12.39;1008.87;8;0;0
2019-09-09 03:17:01;12.39;1008.86;8;0;0
2019-09-09 03:17:31;12.29;1008.86;8;0;0
2019-09-09 03:18:01;12.47;1008.85;8;0;0
2019-09-09 03:18:31;12.47;1008.85;8;0;0
2019-09-09 03:19:01;12.59;1008.84;9;0;0
2019-09-09 03:19:31;12.62;1008.84;8;0;0
2019-09-09 03:20:01;12.37;1008.84;8;0;0
2019-09-09 03:20:31;12.31;1008.84;8;0;0
2019-09-09 03:21:01;12.54;1008.84;8;0;0
2019-09-09 03:21:31;12.49;1008.84;8;0;0
2019-09-09 03:22:01;12.57;1008.84;8;0;0
2019-09-09 03:22:32;12.53;1008.84;8;0;0
2019-09-09 03:23:01;12.54;1008.84;8;0;0
2019-09-09 03:23:31;12.57;1008.84;8;0;0
2019-09-09 03:24:01;12.34;1008.84;8;0;0
2019-09-09 03:24:31;12.38;1008.84;8;0;0
2019-09-09 03:25:01;12.23;1008.84;8;0;0
2019-09-09 03:25:31;12.34;1008.83;8;0;0
2019-09-09 03:26:01;12.37;1008.83;8;0;0
2019-09-09 03:26:31;12.66;1008.84;8;0;0
2019-09-09 03:27:01;12.57;1008.84;8;0;0
2019-09-09 03:27:31;12.58;1008.84;8;0;0
2019-09-09 03:28:01;12.67;1008.84;8;0;0
2019-09-09 03:28:31;12.69;1008.84;8;0;0
2019-09-09 03:29:01;12.63;1008.84;8;0;0
2019-09-09 03:29:32;12.7;1008.84;9;0;0
2019-09-09 03:30:01;12.7;1008.84;8;0;0
2019-09-09 03:30:31;12.7;1008.84;8;0;0
2019-09-09 03:31:02;12.59;1008.84;8;0;0
2019-09-09 03:31:31;12.65;1008.84;8;0;0
2019-09-09 03:32:01;12.49;1008.82;7;0;0
2019-09-09 03:32:31;12.58;1008.83;7;0;0
2019-09-09 03:33:01;12.66;1008.83;7;0;0
2019-09-09 03:33:31;12.58;1008.84;8;0;0
2019-09-09 03:34:01;12.58;1008.84;8;0;0
2019-09-09 03:34:31;12.56;1008.82;8;0;0
2019-09-09 03:35:01;12.54;1008.83;8;0;0
2019-09-09 03:35:31;12.61;1008.83;8;0;0
2019-09-09 03:36:01;12.6;1008.84;8;0;0
2019-09-09 03:36:31;12.74;1008.82;8;0;0
2019-09-09 03:37:01;12.73;1008.83;8;0;0
2019-09-09 03:37:31;12.64;1008.83;8;0;0
2019-09-09 03:38:01;12.56;1008.82;8;0;0
2019-09-09 03:38:32;12.67;1008.83;8;0;0
2019-09-09 03:39:02;12.53;1008.83;8;0;0
2019-09-09 03:39:31;12.54;1008.82;8;0;0
2019-09-09 03:40:01;12.46;1008.83;8;0;0
2019-09-09 03:40:31;12.61;1008.82;9;0;0
2019-09-09 03:41:01;12.58;1008.81;9;0;0
2019-09-09 03:41:31;12.5;1008.82;9;0;0
2019-09-09 03:42:01;12.6;1008.76;8;0;0
2019-09-09 03:42:31;12.55;1008.79;8;0;0
2019-09-09 03:43:02;12.6;1008.81;8;0;0
2019-09-09 03:43:31;12.59;1008.81;8;0;0
2019-09-09 03:44:01;12.54;1008.81;8;0;0
2019-09-09 03:44:31;12.68;1008.82;7;0;0
2019-09-09 03:45:01;12.58;1008.81;8;0;0
2019-09-09 03:45:32;12.52;1008.77;8;0;0
2019-09-09 03:46:01;12.66;1008.78;8;0;0
2019-09-09 03:46:31;12.63;1008.77;9;0;0
2019-09-09 03:47:01;12.53;1008.75;8;0;0
2019-09-09 03:47:31;12.45;1008.78;8;0;0
2019-09-09 03:48:01;12.5;1008.78;8;0;0
2019-09-09 03:48:31;12.55;1008.75;9;0;0
2019-09-09 03:49:01;12.57;1008.76;8;0;0
2019-09-09 03:49:31;12.55;1008.78;8;0;0
2019-09-09 03:50:01;12.73;1008.76;8;0;0
2019-09-09 03:50:31;12.76;1008.75;8;0;0
2019-09-09 03:51:01;12.55;1008.72;8;0;0
2019-09-09 03:51:31;12.47;1008.75;8;0;0
2019-09-09 03:52:01;12.51;1008.74;8;0;0
2019-09-09 03:52:31;12.62;1008.71;8;0;0
2019-09-09 03:53:01;12.47;1008.66;8;0;0
2019-09-09 03:53:31;12.53;1008.66;8;0;0
2019-09-09 03:54:01;12.52;1008.6;8;0;0
2019-09-09 03:54:31;12.57;1008.65;8;0;0
2019-09-09 03:55:01;12.75;1008.63;8;0;0
2019-09-09 03:55:31;12.52;1008.67;8;0;0
2019-09-09 03:56:01;12.44;1008.63;8;0;0
2019-09-09 03:56:31;12.44;1008.66;8;0;0
2019-09-09 03:57:01;12.48;1008.68;8;0;0
2019-09-09 03:57:31;12.44;1008.64;8;0;0
2019-09-09 03:58:01;12.29;1008.67;8;0;0
2019-09-09 03:58:31;12.43;1008.59;8;0;0
2019-09-09 03:59:01;12.5;1008.63;8;0;0
2019-09-09 03:59:31;12.4;1008.63;8;0;0
2019-09-09 04:00:01;12.45;1008.6;8;0;0
2019-09-09 04:00:31;12.37;1008.6;8;0;0
2019-09-09 04:01:02;12.54;1008.58;8;0;0
2019-09-09 04:01:32;12.47;1008.58;8;0;0
2019-09-09 04:02:01;12.47;1008.57;8;0;0
2019-09-09 04:02:31;12.45;1008.51;8;0;0
2019-09-09 04:03:01;12.77;1008.59;8;0;0
2019-09-09 04:03:31;12.49;1008.58;9;0;0
2019-09-09 04:04:01;12.58;1008.56;8;0;0
2019-09-09 04:04:31;12.63;1008.56;8;0;0
2019-09-09 04:05:01;12.45;1008.58;8;0;0
2019-09-09 04:05:31;12.49;1008.58;8;0;0
2019-09-09 04:06:01;12.6;1008.58;8;0;0
2019-09-09 04:06:32;12.51;1008.55;8;0;0
2019-09-09 04:07:01;12.46;1008.54;8;0;0
2019-09-09 04:07:31;12.45;1008.58;8;0;0
2019-09-09 04:08:02;12.51;1008.54;8;0;0
2019-09-09 04:08:31;12.32;1008.54;8;0;0
2019-09-09 04:09:01;12.46;1008.58;8;0;0
2019-09-09 04:09:31;12.52;1008.57;8;0;0
2019-09-09 04:10:01;12.49;1008.61;8;0;0
2019-09-09 04:10:31;12.6;1008.61;7;0;0
2019-09-09 04:11:01;12.45;1008.62;8;0;0
2019-09-09 04:11:31;12.72;1008.58;8;0;0
2019-09-09 04:12:01;12.59;1008.6;8;0;0
2019-09-09 04:12:31;12.41;1008.55;7;0;0
2019-09-09 04:13:01;12.25;1008.51;8;0;0
2019-09-09 04:13:31;12.38;1008.51;8;0;0
2019-09-09 04:14:01;12.47;1008.48;8;0;0
2019-09-09 04:14:31;12.41;1008.51;8;0;0
2019-09-09 04:15:01;12.31;1008.46;8;0;0
2019-09-09 04:15:31;12.43;1008.45;8;0;0
2019-09-09 04:16:01;12.46;1008.43;8;0;0
2019-09-09 04:16:31;12.47;1008.46;8;0;0
2019-09-09 04:17:01;12.44;1008.48;8;0;0
2019-09-09 04:17:31;12.29;1008.47;8;0;0
2019-09-09 04:18:01;12.4;1008.49;8;0;0
2019-09-09 04:18:31;12.34;1008.49;8;0;0
2019-09-09 04:19:01;12.38;1008.49;7;0;0
2019-09-09 04:19:31;12.43;1008.45;8;0;0
2019-09-09 04:20:01;12.42;1008.46;8;0;0
2019-09-09 04:20:32;12.39;1008.36;8;0;0
2019-09-09 04:21:01;12.4;1008.44;8;0;0
2019-09-09 04:21:31;12.46;1008.49;8;0;0
2019-09-09 04:22:01;12.33;1008.46;8;0;0
2019-09-09 04:22:31;12.18;1008.35;7;0;0
2019-09-09 04:23:01;12.22;1008.38;8;0;0
2019-09-09 04:23:31;12.25;1008.34;9;0;0
2019-09-09 04:24:01;12.34;1008.31;8;0;0
2019-09-09 04:24:31;12.33;1008.27;8;0;0
2019-09-09 04:25:01;12.4;1008.3;8;0;0
2019-09-09 04:25:31;12.32;1008.35;8;0;0
2019-09-09 04:26:01;12.44;1008.29;8;0;0
2019-09-09 04:26:31;12.52;1008.28;8;0;0
2019-09-09 04:27:01;12.49;1008.26;8;0;0
2019-09-09 04:27:32;12.44;1008.22;8;0;0
2019-09-09 04:28:01;12.21;1008.24;8;0;0
2019-09-09 04:28:31;12.45;1008.23;8;0;0
2019-09-09 04:29:01;12.42;1008.28;8;0;0
2019-09-09 04:29:31;12.32;1008.26;8;0;0
2019-09-09 04:30:02;12.33;1008.28;8;0;0
2019-09-09 04:30:31;12.29;1008.19;8;0;0
2019-09-09 04:31:01;12.2;1008.21;8;0;0
2019-09-09 04:31:31;12.22;1008.21;8;0;0
2019-09-09 04:32:01;12.29;1008.2;8;0;0
2019-09-09 04:32:31;12.25;1008.18;8;0;0
2019-09-09 04:33:01;12.22;1008.21;8;0;0
2019-09-09 04:33:31;12.25;1008.23;8;0;0
2019-09-09 04:34:01;12.32;1008.23;9;0;0
2019-09-09 04:34:31;12.23;1008.2;9;0;0
2019-09-09 04:35:01;12.18;1008.19;8;0;0
2019-09-09 04:35:31;12.31;1008.18;8;0;0
2019-09-09 04:36:01;12.3;1008.14;8;0;0
2019-09-09 04:36:32;12.25;1008.13;8;0;0
2019-09-09 04:37:01;12.26;1008.1;8;0;0
2019-09-09 04:37:31;12.35;1008.14;8;0;0
2019-09-09 04:38:01;12.38;1008.12;8;0;0
2019-09-09 04:38:31;12.42;1008.09;8;0;0
2019-09-09 04:39:02;12.33;1008.15;8;0;0
2019-09-09 04:39:31;12.29;1008.14;8;0;0
2019-09-09 04:40:01;12.12;1008.12;8;0;0
2019-09-09 04:40:31;12.37;1008.07;8;0;0
2019-09-09 04:41:01;12.39;1008.06;8;0;0
2019-09-09 04:41:31;12.39;1008.06;8;0;0
2019-09-09 04:42:01;12.26;1008;8;0;0
2019-09-09 04:42:31;12.32;1007.97;9;0;0
2019-09-09 04:43:01;12.41;1007.95;8;0;0
2019-09-09 04:43:31;12.36;1007.98;8;0;0
2019-09-09 04:44:01;12.19;1008.04;8;0;0
2019-09-09 04:44:31;12.25;1008.04;8;0;0
2019-09-09 04:45:01;12.25;1008.01;8;0;0
2019-09-09 04:45:31;12.26;1008;8;0;0
2019-09-09 04:46:01;12.48;1007.99;8;0;0
2019-09-09 04:46:31;12.3;1007.98;8;0;0
2019-09-09 04:47:01;12.22;1007.98;8;0;0
2019-09-09 04:47:32;12.29;1007.98;8;0;0
2019-09-09 04:48:01;12.38;1007.96;8;0;0
2019-09-09 04:48:31;12.33;1007.96;8;0;0
2019-09-09 04:49:01;12.31;1007.96;8;0;0
2019-09-09 04:49:31;12.27;1007.93;8;0;0
2019-09-09 04:50:01;12.27;1007.96;8;0;0
2019-09-09 04:50:31;12.32;1007.98;8;0;0
2019-09-09 04:51:01;12.37;1008.02;9;0;0
2019-09-09 04:51:31;12.4;1007.97;8;0;0
2019-09-09 04:52:01;12.41;1007.94;8;0;0
2019-09-09 04:52:31;12.33;1007.93;8;0;0
2019-09-09 04:53:01;12.46;1007.95;8;0;0
2019-09-09 04:53:31;12.21;1007.94;8;0;0
2019-09-09 04:54:01;12.28;1007.91;8;0;0
2019-09-09 04:54:31;12.25;1007.92;8;0;0
2019-09-09 04:55:01;12.01;1007.91;8;0;0
2019-09-09 04:55:31;12.25;1007.89;8;0;0
2019-09-09 04:56:01;12.02;1007.88;8;0;0
2019-09-09 04:56:31;12.06;1007.87;8;0;0
2019-09-09 04:57:01;12.09;1007.88;8;0;0
2019-09-09 04:57:31;12.16;1007.9;8;0;0
2019-09-09 04:58:01;12.23;1007.9;8;0;0
2019-09-09 04:58:32;12.2;1007.88;8;0;0
2019-09-09 04:59:01;12.05;1007.88;8;0;0
2019-09-09 04:59:31;12.2;1007.89;8;0;0
2019-09-09 05:00:01;12.17;1007.88;8;0;0